Regional Weather Roundup
Issued by NWS

Home | Current Version | Previous Version | Text Only | Print | Product List | Glossary On
Versions: 1 2 3 4 5 6 7 8 9 10 11 12 13 14 15 16 17 18 19 20 21 22 23 24 25 26 27 28 29 30 31 32 33 34 35 36 37 38 39 40 41 42 43 44 45 46 47 48 49 50
000
ASUS43 KTOP 260359
RWRKS

WEATHER ROUNDUP FOR KANSAS
NATIONAL WEATHER SERVICE GOODLAND KS
1100 PM CDT SAT APR 25 2015

NOTE:  "FAIR" INDICATES FEW OR NO CLOUDS BELOW 12,000 FEET WITH NO
SIGNIFICANT WEATHER AND/OR OBSTRUCTIONS TO VISIBILITY.

KSZ001>006-013>018-027>032-041>047-260500-
NORTHWEST KANSAS

CITY           SKY/WX    TMP DP  RH WIND       PRES   REMARKS
GOODLAND       CLOUDY    53  51  93 E16       29.78R
HAYS           CLOUDY    52  43  71 NE18      29.81R
HILL CITY      CLOUDY    52  48  86 E13       29.82R
RUSSELL        CLOUDY    51  49  92 NE14      29.80R
$$

KSZ061>065-074>080-084>089-260500-
SOUTHWEST KANSAS

CITY           SKY/WX    TMP DP  RH WIND       PRES   REMARKS
DODGE CITY     CLEAR     57  50  77 E15       29.74R
ELKHART          N/A     57  34  42 E12         N/A
GARDEN CITY    CLEAR     56  50  80 E20G25    29.72S
GREAT BEND     CLOUDY    55  48  76 E15       29.79R
LIBERAL        CLEAR     64  37  36 E16       29.71R
$$

KSZ066>073-081>083-090>101-260500-
SOUTHEAST KANSAS

CITY           SKY/WX    TMP DP  RH WIND       PRES   REMARKS
CHANUTE        CLOUDY    56  52  86 N10       29.77R
COFFEYVILLE    CLEAR     58  54  86 N10       29.74R
HUTCHINSON     CLOUDY    57  50  77 NE10      29.77S
MEDICINE LODGE   N/A     59  54  83 E13G21    29.73R
NEWTON         CLOUDY    54  46  76 NE10      29.81R
PARSONS        CLOUDY    59  55  87 N7        29.76R
WICHITA INTL   PTCLDY    57  52  83 NE20      29.75R
WICHITA JABRA  CLOUDY    56  51  84 NE17      29.76R
WINFIELD       CLEAR     59  53  80 NE12      29.75R
$$

KSZ007>012-019>026-033>040-048>060-102>105-260500-
NORTHEAST KANSAS

CITY           SKY/WX    TMP DP  RH WIND       PRES   REMARKS
CONCORDIA      CLOUDY    50  46  86 NE12      29.83R
EMPORIA        CLOUDY    51  48  89 NE13      29.79R
LAWRENCE       CLOUDY    50  46  86 NE5       29.81R
MANHATTAN      CLOUDY    50  47  89 NE10      29.82R
OLATHE IND     CLOUDY    49  47  93 N10       29.80R
OLATHE EXE     CLOUDY    50  47  89 N9        29.79R
SALINA         CLOUDY    54  48  80 NE14      29.82R
TOPEKA BILLARD CLOUDY    50  46  86 N7        29.82R
TOPEKA FORBES  CLOUDY    50  47  89 N7        29.81R FOG
$$


USA.gov is the U.S. government's official web portal to all federal, state and local government web resources and services.